RYR248P EDNY-LEPA

Flight info

Callsign RYR248P
Flight time 1h 37m
Altitude 37000
Route TRA DCT LUTIX DCT BENOT DCT NEMOS DCT GEVEA DCT INCUS DCT BALSI DCT RETNO DCT TUPOX DCT MTG DCT DIVKO DCT VATIR N852 PIVUS DCT BODEQ N852 VERSO DCT LUNIK
Aircraft A320/M-SDE3FGHIRWY/LB1

Departure

Time 2026-04-21 15:44
Airport Bodensee Airport Friedrichshafen (EDNY)

Arrival

Time 2026-04-21 17:22
Airport Palma de Mallorca Airport (LEPA)
Time Latitude Longitude Altitude Speed Heading
2026-04-21 15:19 47.67311 9.52248 1369 ft 0 kts 186°
2026-04-21 15:35 47.67310 9.52248 1368 ft 1 kts 186°
2026-04-21 15:35 47.67308 9.52267 1367 ft 4 kts 96°
2026-04-21 15:35 47.67297 9.52268 1367 ft 1 kts 331°
2026-04-21 15:35 47.67293 9.52272 1367 ft 0 kts 331°
2026-04-21 15:37 47.67295 9.52270 1368 ft 1 kts 331°
2026-04-21 15:37 47.67306 9.52261 1368 ft 3 kts 331°
2026-04-21 15:38 47.67327 9.52244 1368 ft 5 kts 331°
2026-04-21 15:38 47.67342 9.52172 1367 ft 10 kts 251°
2026-04-21 15:38 47.67306 9.52069 1366 ft 13 kts 240°
2026-04-21 15:38 47.67258 9.51946 1367 ft 14 kts 240°
2026-04-21 15:39 47.67207 9.51816 1364 ft 15 kts 240°
2026-04-21 15:39 47.67152 9.51673 1364 ft 16 kts 240°
2026-04-21 15:39 47.67093 9.51524 1362 ft 17 kts 239°
2026-04-21 15:39 47.67027 9.51354 1359 ft 20 kts 240°
2026-04-21 15:40 47.66958 9.51176 1357 ft 19 kts 240°
2026-04-21 15:40 47.66887 9.50992 1352 ft 22 kts 241°
2026-04-21 15:40 47.66815 9.50800 1352 ft 15 kts 240°
2026-04-21 15:40 47.66803 9.50770 1351 ft 1 kts 239°
2026-04-21 15:41 47.66793 9.50744 1352 ft 5 kts 239°
2026-04-21 15:41 47.66765 9.50658 1354 ft 12 kts 259°
2026-04-21 15:41 47.66825 9.50615 1351 ft 13 kts 22°
2026-04-21 15:41 47.66900 9.50697 1350 ft 12 kts 77°
2026-04-21 15:42 47.66873 9.50727 1350 ft 8 kts 162°
2026-04-21 15:42 47.66770 9.50745 1350 ft 22 kts 191°
2026-04-21 15:42 47.66646 9.50591 1349 ft 24 kts 239°
2026-04-21 15:42 47.66564 9.50378 1350 ft 24 kts 241°
2026-04-21 15:43 47.66488 9.50181 1346 ft 19 kts 242°
2026-04-21 15:43 47.66492 9.50008 1344 ft 18 kts 297°
2026-04-21 15:43 47.66551 9.49866 1343 ft 14 kts 306°
2026-04-21 15:43 47.66630 9.49858 1343 ft 13 kts 49°
2026-04-21 15:44 47.66748 9.50156 1350 ft 65 kts 60°
2026-04-21 15:44 47.67075 9.50998 1355 ft 120 kts 59°
2026-04-21 15:44 47.67546 9.52256 1453 ft 151 kts 51°
2026-04-21 15:44 47.68030 9.53539 2167 ft 138 kts 56°
2026-04-21 15:45 47.68519 9.54743 2853 ft 138 kts 56°
2026-04-21 15:45 47.69008 9.55989 3319 ft 146 kts 57°
2026-04-21 15:45 47.69555 9.57393 3596 ft 166 kts 60°
2026-04-21 15:45 47.70204 9.58957 3823 ft 189 kts 49°
2026-04-21 15:46 47.71401 9.59812 4274 ft 204 kts
2026-04-21 15:46 47.72746 9.59056 4985 ft 218 kts 323°
2026-04-21 15:46 47.73803 9.57387 5732 ft 223 kts 314°
2026-04-21 15:46 47.74808 9.55599 6488 ft 227 kts 312°
2026-04-21 15:47 47.75795 9.53795 7232 ft 228 kts 311°
2026-04-21 15:47 47.76806 9.51957 8010 ft 229 kts 310°
2026-04-21 15:47 47.77823 9.50127 8797 ft 230 kts 309°
2026-04-21 15:47 47.78849 9.48297 9606 ft 230 kts 309°
2026-04-21 15:48 47.79763 9.46353 10359 ft 230 kts 294°
2026-04-21 15:48 47.80247 9.44026 10773 ft 246 kts 278°
2026-04-21 15:48 47.80516 9.41380 11040 ft 270 kts 278°
2026-04-21 15:48 47.80806 9.38536 11273 ft 293 kts 278°
2026-04-21 15:49 47.81130 9.35406 11446 ft 316 kts 278°
2026-04-21 15:49 47.81479 9.32091 11875 ft 328 kts 279°
2026-04-21 15:49 47.81838 9.28722 12574 ft 331 kts 279°
2026-04-21 15:49 47.82201 9.25313 13302 ft 334 kts 279°
2026-04-21 15:50 47.82560 9.21923 14017 ft 336 kts 279°
2026-04-21 15:50 47.82926 9.18467 14637 ft 340 kts 279°
2026-04-21 15:50 47.83269 9.14959 15235 ft 344 kts 275°
2026-04-21 15:50 47.83170 9.11376 15796 ft 350 kts 261°
2026-04-21 15:51 47.82523 9.07844 16364 ft 356 kts 254°
2026-04-21 15:51 47.81779 9.04309 16958 ft 360 kts 254°
2026-04-21 15:51 47.81034 9.00774 17510 ft 364 kts 255°
2026-04-21 15:51 47.80521 8.98330 17895 ft 367 kts 255°
2026-04-21 15:52 47.79738 8.94453 18485 ft 372 kts 255°
2026-04-21 15:52 47.78970 8.90751 19037 ft 375 kts 255°
2026-04-21 15:52 47.78450 8.88296 19410 ft 377 kts 255°
2026-04-21 15:52 47.77379 8.83294 20209 ft 380 kts 255°
2026-04-21 15:53 47.76587 8.79586 20806 ft 382 kts 255°
2026-04-21 15:53 47.75779 8.75798 21379 ft 384 kts 255°
2026-04-21 15:53 47.74972 8.71997 21977 ft 386 kts 255°
2026-04-21 15:53 47.74164 8.68176 22530 ft 388 kts 255°
2026-04-21 15:54 47.73355 8.64331 23085 ft 390 kts 255°
2026-04-21 15:54 47.72552 8.60525 23630 ft 391 kts 256°
2026-04-21 15:54 47.71734 8.56664 24093 ft 392 kts 256°
2026-04-21 15:54 47.70904 8.52787 24564 ft 392 kts 256°
2026-04-21 15:55 47.70075 8.48929 25039 ft 392 kts 256°
2026-04-21 15:55 47.69178 8.45095 25504 ft 395 kts 251°
2026-04-21 15:55 47.67870 8.41471 25931 ft 402 kts 242°
2026-04-21 15:55 47.66260 8.38113 26361 ft 404 kts 240°
2026-04-21 15:56 47.64616 8.34724 26794 ft 405 kts 241°
2026-04-21 15:56 47.62964 8.31316 27205 ft 406 kts 241°
2026-04-21 15:56 47.61313 8.27910 27617 ft 407 kts 242°
2026-04-21 15:56 47.59659 8.24499 28021 ft 408 kts 242°
2026-04-21 15:57 47.57997 8.21075 28430 ft 409 kts 242°
2026-04-21 15:57 47.56350 8.17687 28799 ft 411 kts 242°
2026-04-21 15:57 47.54670 8.14242 29191 ft 412 kts 243°
2026-04-21 15:57 47.52989 8.10795 29572 ft 413 kts 243°
2026-04-21 15:58 47.51298 8.07334 29948 ft 415 kts 243°
2026-04-21 15:58 47.49600 8.03868 30407 ft 413 kts 243°
2026-04-21 15:58 47.47928 8.00466 30834 ft 412 kts 243°
2026-04-21 15:58 47.46243 7.97037 31260 ft 411 kts 243°
2026-04-21 15:59 47.45128 7.94768 31542 ft 410 kts 243°
2026-04-21 15:59 47.42880 7.90198 32100 ft 409 kts 243°
2026-04-21 15:59 47.41226 7.86835 32509 ft 408 kts 243°
2026-04-21 15:59 47.39554 7.83431 32939 ft 407 kts 243°
2026-04-21 16:00 47.37890 7.80046 33371 ft 407 kts 243°
2026-04-21 16:00 47.36785 7.77805 33640 ft 406 kts 243°
2026-04-21 16:00 47.34572 7.73336 34160 ft 405 kts 242°
2026-04-21 16:00 47.32903 7.69975 34485 ft 405 kts 242°
2026-04-21 16:01 47.31801 7.67754 34636 ft 406 kts 242°
2026-04-21 16:01 47.30134 7.64394 34898 ft 407 kts 242°
2026-04-21 16:01 47.28460 7.61022 35176 ft 408 kts 242°
2026-04-21 16:01 47.26783 7.57644 35432 ft 409 kts 242°
2026-04-21 16:02 47.25102 7.54259 35655 ft 410 kts 241°
2026-04-21 16:02 47.23412 7.50862 35838 ft 412 kts 241°
2026-04-21 16:02 47.21714 7.47461 36108 ft 412 kts 241°
2026-04-21 16:02 47.20013 7.44066 36364 ft 413 kts 240°
2026-04-21 16:03 47.18308 7.40672 36597 ft 413 kts 240°
2026-04-21 16:03 47.16596 7.37264 36818 ft 414 kts 240°
2026-04-21 16:03 47.14856 7.33876 37000 ft 417 kts 239°
2026-04-21 16:03 47.13060 7.30514 37063 ft 421 kts 238°
2026-04-21 16:04 47.09345 7.23777 37066 ft 427 kts 238°
2026-04-21 16:04 47.05610 7.17012 37046 ft 427 kts 237°
2026-04-21 16:05 47.01901 7.10222 37049 ft 426 kts 238°
2026-04-21 16:05 46.98204 7.03436 37029 ft 426 kts 238°
2026-04-21 16:06 46.94496 6.96660 37025 ft 426 kts 237°
2026-04-21 16:06 46.90632 6.90048 37029 ft 433 kts 229°
2026-04-21 16:07 46.85956 6.84401 37032 ft 437 kts 226°
2026-04-21 16:07 46.81246 6.78800 37039 ft 437 kts 226°
2026-04-21 16:08 46.74182 6.70415 37037 ft 436 kts 226°
2026-04-21 16:09 46.69480 6.64837 37039 ft 435 kts 226°
2026-04-21 16:09 46.64779 6.59286 37038 ft 435 kts 226°
2026-04-21 16:10 46.60086 6.53746 37037 ft 434 kts 226°
2026-04-21 16:10 46.55398 6.48222 37037 ft 434 kts 226°
2026-04-21 16:11 46.50746 6.42749 37032 ft 433 kts 226°
2026-04-21 16:11 46.46057 6.37272 37028 ft 432 kts 226°
2026-04-21 16:12 46.41374 6.31809 37043 ft 432 kts 226°
2026-04-21 16:12 46.36700 6.26351 37019 ft 431 kts 226°
2026-04-21 16:13 46.32026 6.20914 37014 ft 431 kts 225°
2026-04-21 16:13 46.27256 6.15635 37020 ft 437 kts 218°
2026-04-21 16:13 46.24516 6.13640 37003 ft 446 kts 207°
2026-04-21 16:14 46.21515 6.12356 37008 ft 455 kts 197°
2026-04-21 16:14 46.15223 6.10957 37001 ft 458 kts 195°
2026-04-21 16:15 46.08928 6.09570 37000 ft 458 kts 195°
2026-04-21 16:15 46.02632 6.08161 36977 ft 458 kts 195°
2026-04-21 16:16 45.96341 6.06759 36980 ft 458 kts 195°
2026-04-21 16:16 45.90046 6.05389 36971 ft 457 kts 195°
2026-04-21 16:17 45.83760 6.04016 36972 ft 457 kts 195°
2026-04-21 16:17 45.77480 6.02623 36975 ft 456 kts 195°
2026-04-21 16:18 45.71205 6.01220 36977 ft 456 kts 195°
2026-04-21 16:18 45.64931 5.99842 36975 ft 456 kts 195°
2026-04-21 16:19 45.58665 5.98473 36976 ft 456 kts 195°
2026-04-21 16:19 45.52437 5.97109 36977 ft 455 kts 195°
2026-04-21 16:20 45.46183 5.95694 36966 ft 454 kts 197°
2026-04-21 16:20 45.40030 5.93865 36961 ft 451 kts 200°
2026-04-21 16:21 45.33924 5.91810 36977 ft 451 kts 200°
2026-04-21 16:21 45.27808 5.89818 36961 ft 451 kts 199°
2026-04-21 16:22 45.21676 5.87920 36958 ft 452 kts 199°
2026-04-21 16:22 45.15536 5.86040 36957 ft 451 kts 199°
2026-04-21 16:23 45.09398 5.84149 36959 ft 451 kts 199°
2026-04-21 16:23 45.03267 5.82254 36948 ft 451 kts 199°
2026-04-21 16:24 44.97128 5.80354 36958 ft 452 kts 199°
2026-04-21 16:24 44.90989 5.78472 36954 ft 451 kts 199°
2026-04-21 16:25 44.84860 5.76599 36949 ft 451 kts 199°
2026-04-21 16:25 44.78738 5.74717 36943 ft 450 kts 199°
2026-04-21 16:26 44.72618 5.72845 36939 ft 450 kts 199°
2026-04-21 16:26 44.66500 5.70979 36927 ft 450 kts 199°
2026-04-21 16:27 44.60390 5.69124 36925 ft 449 kts 199°
2026-04-21 16:27 44.54287 5.67272 36919 ft 449 kts 199°
2026-04-21 16:28 44.48191 5.65431 36905 ft 448 kts 199°
2026-04-21 16:28 44.42095 5.63585 36908 ft 448 kts 199°
2026-04-21 16:29 44.36163 5.61358 36900 ft 439 kts 208°
2026-04-21 16:29 44.30478 5.58236 36901 ft 439 kts 208°
2026-04-21 16:30 44.24756 5.55097 36903 ft 439 kts 208°
2026-04-21 16:30 44.19111 5.52016 36901 ft 438 kts 208°
2026-04-21 16:31 44.13389 5.48891 36901 ft 439 kts 207°
2026-04-21 16:31 44.07750 5.45818 36900 ft 438 kts 207°
2026-04-21 16:32 44.02080 5.42734 36891 ft 437 kts 207°
2026-04-21 16:32 43.96414 5.39675 36884 ft 437 kts 207°
2026-04-21 16:33 43.90755 5.36618 36886 ft 436 kts 207°
2026-04-21 16:33 43.85101 5.33563 36880 ft 436 kts 207°
2026-04-21 16:34 43.79449 5.30511 36882 ft 436 kts 207°
2026-04-21 16:34 43.73803 5.27471 36879 ft 435 kts 207°
2026-04-21 16:35 43.68158 5.24442 36875 ft 435 kts 207°
2026-04-21 16:35 43.62519 5.21412 36872 ft 435 kts 207°
2026-04-21 16:36 43.56880 5.18388 36872 ft 435 kts 207°
2026-04-21 16:36 43.51238 5.15385 36902 ft 435 kts 207°
2026-04-21 16:37 43.45596 5.12389 36900 ft 434 kts 207°
2026-04-21 16:37 43.39966 5.09373 36901 ft 432 kts 210°
2026-04-21 16:38 43.34903 5.05176 36899 ft 423 kts 220°
2026-04-21 16:38 43.30047 5.00576 36899 ft 424 kts 220°
2026-04-21 16:39 43.25178 4.95997 36900 ft 424 kts 220°
2026-04-21 16:39 43.20307 4.91423 36901 ft 424 kts 220°
2026-04-21 16:40 43.15431 4.86861 36906 ft 425 kts 220°
2026-04-21 16:40 43.10584 4.82333 36905 ft 425 kts 220°
2026-04-21 16:41 43.06490 4.78516 36907 ft 425 kts 219°
2026-04-21 16:41 43.00498 4.73798 36907 ft 429 kts 214°
2026-04-21 16:42 42.95286 4.69847 36908 ft 429 kts 214°
2026-04-21 16:42 42.90065 4.65895 36909 ft 429 kts 214°
2026-04-21 16:43 42.84839 4.61953 36912 ft 429 kts 214°
2026-04-21 16:43 42.79613 4.58012 36914 ft 429 kts 214°
2026-04-21 16:44 42.74384 4.54069 36920 ft 430 kts 214°
2026-04-21 16:44 42.69155 4.50136 36913 ft 430 kts 214°
2026-04-21 16:45 42.63915 4.46214 36914 ft 430 kts 214°
2026-04-21 16:45 42.58667 4.42305 36909 ft 430 kts 213°
2026-04-21 16:46 42.53426 4.38400 36909 ft 430 kts 213°
2026-04-21 16:46 42.48187 4.34492 36908 ft 430 kts 213°
2026-04-21 16:47 42.42948 4.30591 36916 ft 430 kts 213°
2026-04-21 16:47 42.38594 4.27352 36917 ft 430 kts 213°
2026-04-21 16:48 42.33348 4.23464 36920 ft 430 kts 213°
2026-04-21 16:48 42.28103 4.19587 36920 ft 430 kts 213°
2026-04-21 16:49 42.22859 4.15714 36924 ft 430 kts 213°
2026-04-21 16:49 42.17613 4.11851 36923 ft 430 kts 213°
2026-04-21 16:50 42.12365 4.07993 36924 ft 430 kts 213°
2026-04-21 16:50 42.07116 4.04134 36921 ft 430 kts 213°
2026-04-21 16:51 42.01862 4.00277 36925 ft 430 kts 213°
2026-04-21 16:51 41.96603 3.96439 36928 ft 430 kts 213°
2026-04-21 16:52 41.91114 3.93181 36925 ft 437 kts 199°
2026-04-21 16:52 41.85095 3.91680 36930 ft 441 kts 194°
2026-04-21 16:53 41.79050 3.90284 36930 ft 441 kts 194°
2026-04-21 16:53 41.73044 3.88895 36931 ft 441 kts 194°
2026-04-21 16:54 41.66999 3.87498 36931 ft 441 kts 194°
2026-04-21 16:54 41.60952 3.86112 36929 ft 441 kts 194°
2026-04-21 16:55 41.54909 3.84726 36929 ft 441 kts 194°
2026-04-21 16:55 41.48862 3.83342 36929 ft 441 kts 194°
2026-04-21 16:56 41.42808 3.81960 36934 ft 442 kts 194°
2026-04-21 16:56 41.36747 3.80573 36931 ft 442 kts 194°
2026-04-21 16:57 41.30683 3.79187 36932 ft 442 kts 194°
2026-04-21 16:57 41.24616 3.77811 36935 ft 442 kts 194°
2026-04-21 16:58 41.18549 3.76432 36934 ft 442 kts 194°
2026-04-21 16:58 41.12666 3.74344 36937 ft 435 kts 206°
2026-04-21 16:59 41.07029 3.71425 36933 ft 435 kts 206°
2026-04-21 16:59 41.01376 3.68510 36205 ft 440 kts 206°
2026-04-21 16:59 40.98493 3.67024 35256 ft 447 kts 206°
2026-04-21 17:00 40.95597 3.65534 34528 ft 447 kts 205°
2026-04-21 17:00 40.92690 3.64040 33713 ft 449 kts 205°
2026-04-21 17:00 40.90756 3.63046 33081 ft 451 kts 205°
2026-04-21 17:00 40.86857 3.61052 32313 ft 444 kts 205°
2026-04-21 17:01 40.83987 3.59593 31769 ft 440 kts 205°
2026-04-21 17:01 40.81144 3.58149 31226 ft 436 kts 205°
2026-04-21 17:01 40.78326 3.56714 30690 ft 432 kts 205°
2026-04-21 17:01 40.75532 3.55286 30149 ft 429 kts 206°
2026-04-21 17:02 40.72799 3.53886 29571 ft 425 kts 206°
2026-04-21 17:02 40.70020 3.52462 29040 ft 420 kts 206°
2026-04-21 17:02 40.67348 3.51098 28525 ft 416 kts 205°
2026-04-21 17:02 40.64661 3.49733 28007 ft 412 kts 205°
2026-04-21 17:03 40.62002 3.48384 27493 ft 408 kts 206°
2026-04-21 17:03 40.59368 3.47049 27002 ft 404 kts 205°
2026-04-21 17:03 40.56749 3.45724 26508 ft 401 kts 205°
2026-04-21 17:03 40.54153 3.44410 26029 ft 399 kts 205°
2026-04-21 17:04 40.51567 3.43106 25568 ft 397 kts 205°
2026-04-21 17:04 40.48965 3.41793 25094 ft 395 kts 205°
2026-04-21 17:04 40.46439 3.40521 24639 ft 394 kts 204°
2026-04-21 17:04 40.43772 3.39617 24179 ft 399 kts 193°
2026-04-21 17:05 40.40991 3.39386 23713 ft 404 kts 182°
2026-04-21 17:05 40.38184 3.39545 23198 ft 404 kts 181°
2026-04-21 17:05 40.35383 3.39712 22716 ft 402 kts 181°
2026-04-21 17:05 40.32597 3.39882 22243 ft 400 kts 181°
2026-04-21 17:06 40.29828 3.40049 21763 ft 397 kts 181°
2026-04-21 17:06 40.27036 3.40214 21258 ft 396 kts 181°
2026-04-21 17:06 40.24329 3.40366 20775 ft 394 kts 181°
2026-04-21 17:06 40.21582 3.40516 20097 ft 397 kts 181°
2026-04-21 17:07 40.18792 3.40671 19549 ft 394 kts 181°
2026-04-21 17:07 40.16116 3.40824 18736 ft 388 kts 181°
2026-04-21 17:07 40.13472 3.40978 18210 ft 372 kts 181°
2026-04-21 17:07 40.10930 3.41126 17688 ft 360 kts 181°
2026-04-21 17:08 40.08465 3.41266 17317 ft 348 kts 181°
2026-04-21 17:08 40.06084 3.41401 17185 ft 337 kts 181°
2026-04-21 17:08 40.03768 3.41535 16922 ft 331 kts 181°
2026-04-21 17:08 40.01457 3.41668 16637 ft 326 kts 181°
2026-04-21 17:09 39.96945 3.41921 15817 ft 325 kts 181°
2026-04-21 17:09 39.94677 3.42045 15312 ft 327 kts 181°
2026-04-21 17:09 39.92427 3.42171 15049 ft 322 kts 181°
2026-04-21 17:10 39.90167 3.42300 14680 ft 318 kts 181°
2026-04-21 17:10 39.87994 3.42423 14154 ft 316 kts 181°
2026-04-21 17:10 39.85806 3.42545 13573 ft 313 kts 180°
2026-04-21 17:10 39.83641 3.42667 12878 ft 310 kts 180°
2026-04-21 17:11 39.81496 3.42788 12220 ft 307 kts 180°
2026-04-21 17:11 39.79365 3.42908 11670 ft 305 kts 179°
2026-04-21 17:11 39.77256 3.43026 11192 ft 303 kts 179°
2026-04-21 17:11 39.75143 3.43141 10799 ft 303 kts 179°
2026-04-21 17:12 39.73043 3.43097 10353 ft 303 kts 193°
2026-04-21 17:12 39.71143 3.42050 10101 ft 295 kts 218°
2026-04-21 17:12 39.69779 3.40121 9742 ft 290 kts 242°
2026-04-21 17:12 39.69159 3.37658 9366 ft 288 kts 263°
2026-04-21 17:13 39.68888 3.35073 8798 ft 294 kts 263°
2026-04-21 17:13 39.68614 3.32376 7992 ft 308 kts 263°
2026-04-21 17:13 39.68332 3.29600 7429 ft 312 kts 263°
2026-04-21 17:13 39.68047 3.26808 7054 ft 309 kts 262°
2026-04-21 17:14 39.67766 3.24090 6864 ft 300 kts 262°
2026-04-21 17:14 39.67492 3.21447 6710 ft 287 kts 262°
2026-04-21 17:14 39.67236 3.18977 6593 ft 266 kts 262°
2026-04-21 17:14 39.66995 3.16662 6318 ft 254 kts 262°
2026-04-21 17:15 39.66838 3.15165 5998 ft 252 kts 262°
2026-04-21 17:15 39.66554 3.12470 5389 ft 249 kts 262°
2026-04-21 17:15 39.66320 3.10256 5060 ft 247 kts 262°
2026-04-21 17:15 39.66086 3.08046 4995 ft 244 kts 262°
2026-04-21 17:16 39.65863 3.05934 5004 ft 229 kts 261°
2026-04-21 17:16 39.65655 3.03986 5027 ft 206 kts 261°
2026-04-21 17:16 39.65464 3.02185 5024 ft 198 kts 261°
2026-04-21 17:16 39.65275 3.00409 4734 ft 202 kts 261°
2026-04-21 17:17 39.65079 2.98560 4190 ft 212 kts 261°
2026-04-21 17:17 39.64874 2.96651 3736 ft 211 kts 259°
2026-04-21 17:17 39.64365 2.94907 3305 ft 205 kts 237°
2026-04-21 17:17 39.63624 2.93342 3000 ft 202 kts 237°
2026-04-21 17:18 39.62899 2.91795 2713 ft 200 kts 237°
2026-04-21 17:18 39.62185 2.90273 2459 ft 196 kts 237°
2026-04-21 17:18 39.61480 2.88775 2206 ft 193 kts 237°
2026-04-21 17:18 39.60788 2.87305 1951 ft 186 kts 237°
2026-04-21 17:19 39.60148 2.85942 1738 ft 167 kts 237°
2026-04-21 17:19 39.59565 2.84704 1507 ft 154 kts 236°
2026-04-21 17:19 39.59022 2.83552 1310 ft 146 kts 236°
2026-04-21 17:19 39.58497 2.82439 1128 ft 143 kts 237°
2026-04-21 17:20 39.57989 2.81346 962 ft 140 kts 237°
2026-04-21 17:20 39.57480 2.80263 779 ft 141 kts 237°
2026-04-21 17:20 39.56973 2.79195 594 ft 137 kts 238°
2026-04-21 17:20 39.56475 2.78129 409 ft 137 kts 239°
2026-04-21 17:21 39.55978 2.77078 251 ft 137 kts 239°
2026-04-21 17:21 39.55484 2.76028 48 ft 135 kts 238°
2026-04-21 17:21 39.55046 2.75107 29 ft 98 kts 238°
2026-04-21 17:21 39.54778 2.74545 34 ft 55 kts 238°
2026-04-21 17:22 39.54654 2.74286 36 ft 43 kts 238°
2026-04-21 17:22 39.54554 2.73964 36 ft 18 kts 262°
2026-04-21 17:22 39.54550 2.73842 35 ft 9 kts 272°
2026-04-21 17:22 39.54552 2.73793 36 ft 1 kts 272°
2026-04-21 17:23 39.54552 2.73773 36 ft 3 kts 272°
2026-04-21 17:23 39.54553 2.73730 36 ft 6 kts 274°
2026-04-21 17:23 39.54573 2.73670 36 ft 9 kts 306°
2026-04-21 17:23 39.54607 2.73623 36 ft 6 kts 309°
2026-04-21 17:24 39.54629 2.73560 36 ft 9 kts 300°
2026-04-21 17:24 39.54687 2.73504 36 ft 12 kts 328°
2026-04-21 17:24 39.54714 2.73451 36 ft 6 kts 244°
2026-04-21 17:24 39.54694 2.73411 36 ft 3 kts 238°
2026-04-21 17:25 39.54689 2.73401 36 ft 0 kts 238°